Regional Weather Roundup
Issued by NWS

Home | Current Version | Previous Version | Graphics & Text | Print | Product List | Glossary On
Versions: 1 2 3 4 5 6 7 8 9 10 11 12 13 14 15 16 17 18 19 20 21 22 23 24 25 26 27 28 29 30 31 32 33 34 35 36 37 38 39 40 41 42 43 44 45 46 47 48 49 50
820
ASUS43 KMKX 221600
RWRWI

WISCONSIN REGIONAL WEATHER ROUNDUP
NATIONAL WEATHER SERVICE MILWAUKEE/SULLIVAN WI
1100 AM CDT FRI SEP 22 2017

NOTE: "FAIR" INDICATES FEW OR NO CLOUDS BELOW 12,000 FEET WITH NO
SIGNIFICANT WEATHER AND/OR OBSTRUCTIONS TO VISIBILITY.

WIZ001-002-006>008-014>016-023>028-221700-
NORTHWEST WISCONSIN

CITY           SKY/WX    TMP DP  RH WIND       PRES   REMARKS
SUPERIOR ARPT  CLOUDY    65  65 100 W3        29.81F
ASHLAND        CLOUDY    66  63  90 VRB3      29.93F
HAYWARD        TSTM      66  63  90 E9G17     29.93S
SIREN          CLOUDY    69  68  96 E9        29.89F
CUMBERLAND     LGT RAIN  72  68  88 CALM      29.92S
RICE LAKE      LGT RAIN  73  71  94 CALM      29.93R
CHETEK         CLOUDY    76  71  86 CALM      29.91S
LADYSMITH      TSTM      74  70  86 W9        29.96R
EAU CLAIRE     NOT AVBL
MENOMONIE      PTSUNNY   83  72  69 S5        29.90R HX  87
NEW RICHMOND   CLOUDY    79  69  72 S8        29.89S HX  81
OSCEOLA        CLOUDY    80  70  72 S8        29.90F HX  82
$$

WIZ003>005-009-010-017-018-221700-
NORTH CENTRAL WISCONSIN

CITY           SKY/WX    TMP DP  RH WIND       PRES   REMARKS
MANITOWISH WTR CLOUDY    71  71 100 CALM      29.99R
ARBOR VITAE    CLOUDY    74  70  85 SW3       29.98S
WOODRUFF       CLOUDY    74  70  85 SW3       29.98S
RHINELANDER    CLOUDY    77  70  79 SW7       29.99S
EAGLE RIVER    CLOUDY    78  67  70 S5        29.98S HX  80
LAND O LAKES   CLOUDY    76  68  77 CALM      30.02R
PHILLIPS       CLOUDY    72  70  94 NW9       30.00R
TOMAHAWK       CLOUDY    76  69  77 SE3       29.97F
MEDFORD        MOSUNNY   79  70  73 S10       29.97S HX  82
MERRILL        CLOUDY    83  71  69 S12G17    29.98S HX  87
$$

WIZ029-030-035-036-043>047-221700-
CENTRAL WISCONSIN

CITY           SKY/WX    TMP DP  RH WIND       PRES   REMARKS
WAUSAU         CLOUDY    82  69  64 S12       29.98R HX  85
MOSINEE        PTSUNNY   82  70  65 S13       30.00S HX  86
MARSHFIELD     SUNNY     83  68  60 S10       29.98R HX  86
STEVENS POINT  MOSUNNY   80  70  71 S12       30.00S HX  83
WAUPACA        SUNNY     83  71  66 S9        30.00F HX  88
WAUTOMA        SUNNY     83  71  67 S9        30.00F HX  87
WISC RAPIDS    MOSUNNY   84  70  62 SW15G23   29.99F HX  88
CAMP DOUGLAS   NOT AVBL
$$

WIZ011>013-019>022-031-037>040-048>050-221700-
NORTHEAST WISCONSIN

CITY           SKY/WX    TMP DP  RH WIND       PRES   REMARKS
ANTIGO         CLOUDY    78  71  78 S9        30.02R HX  80
SHAWANO        SUNNY     85  71  62 SW6       29.99F HX  91
OCONTO         SUNNY     83  71  66 S7        29.99F HX  88
STURGEON BAY   SUNNY     85  72  65 S8        30.01  HX  91
GREEN BAY      SUNNY     84  71  65 S10       30.01F HX  89
MANITOWOC      SUNNY     85  71  63 S7        30.03F HX  90
APPLETON       MOSUNNY   84  64  51 S13       30.01F HX  86
CLINTONVILLE   SUNNY     82  70  65 S9        30.00F HX  86
OSHKOSH        SUNNY     83  71  67 S9        30.02F HX  87
$$

WIZ032>034-041-042-053>061-221700-
SOUTHWEST WISCONSIN

CITY           SKY/WX    TMP DP  RH WIND       PRES   REMARKS
LA CROSSE      SUNNY     86  70  58 S17       29.93F HX  90
SPARTA         SUNNY     83  69  64 S12       29.96F HX  86
VIROQUA        SUNNY     82  71  69 S10G17    30.00F HX  86
BOSCOBEL       SUNNY     88  69  53 S12       29.99F HX  92
PRAIRIE DU CHI SUNNY     83  67  57 SE5       29.99R HX  86
PLATTEVILLE    SUNNY     83  72  70 S13       30.04S HX  88
$$

WIZ056-057-062-063-064-067-068-221700-
SOUTH CENTRAL WISCONSIN

CITY           SKY/WX    TMP DP  RH WIND       PRES   REMARKS
REEDSBURG      SUNNY     84  71  65 S9        30.01F HX  88
BARABOO/DELLS  SUNNY     82  68  63 S12       30.03S HX  84
LONE ROCK      NOT AVBL
MINERAL POINT  SUNNY     84  72  65 S9        30.05R HX  89
MADISON        MOSUNNY   83  70  64 S8        30.04S HX  87
MIDDLETON      SUNNY     83  70  64 S8        30.05S HX  87
WATERTOWN      SUNNY     83  71  65 SW9       30.05S HX  88
MONROE         SUNNY     81  68  65 S9        30.07R HX  83
JANESVILLE     MOSUNNY   88  66  48 SW12      30.05S HX  90
$$

WIZ051-052-058>065-066-070>072-221700-
SOUTHEAST WISCONSIN

CITY           SKY/WX    TMP DP  RH WIND       PRES   REMARKS
MILWAUKEE      MOSUNNY   89  69  51 SW8       30.06R HX  93
WAUKESHA       SUNNY     84  68  58 S5        30.08S HX  87
MILWAUKEE/TIMM SUNNY     86  64  48 SW9       30.07R HX  87
RACINE         SUNNY     89  70  53 S8        30.08S HX  94
BURLINGTON     SUNNY     87  70  56 SW8G16    30.07R HX  91
KENOSHA        SUNNY     89  69  51 SW12      30.07S HX  93
FOND DU LAC    SUNNY     84  69  60 S7        30.03F HX  88
SHEBOYGAN      SUNNY     85  72  65 SW7       30.04F HX  91
WEST BEND        N/A     84  70  61 SW8       30.05S HX  88
JUNEAU         SUNNY     81  71  69 S7        30.07R HX  85
$$

LSZ147-162-221700-
LAKE SUPERIOR

STATION/POSITION TIME  TEMP    WIND        PRES    WAVE
                       AIR SEA DIR/SP/G            HT/PER
                 (UTC) (F)     (DEG/KT/KT) (MB)    (FT/S)
W MID LAKE BUOY  1450   60 54  350/  8/ 12 1013.1R   1/ 3
DEVILS ISLAND    1500          320/ 16/ 19 1012.2F
PORT WING        1442   62     200/ 17/ 25 1016.9R
SAXON HARBOR     1530   67     200/  8/ 14 1016.3R
$$

LMZ867-665-643>646-221700-
LAKE MICHIGAN

STATION/POSITION TIME  TEMP    WIND        PRES    WAVE
                       AIR SEA DIR/SP/G            HT/PER
                 (UTC) (F)     (DEG/KT/KT) (MB)    (FT/S)
S GREEN BAY BUOY 1530   71 68  190/  8/  8 1015.8F
N MID LAKE BUOY  1450   69 66  180/ 14/ 16 1016.7R   2/ 4
NORTHPORT PIER   1540   72     140/  9/ 10 1015.9F
KEWAUNEE LAKESHO 1530   64     170/  8/ 10 1016.0S
SHEBOYGAN LAKESH 1500   74     210/  5/  6 1017.0R
PORT WASHINGTON  1530   76     130/  3/  5 1018.3S
ATWATER BUOY     1409   73 65  140/  6/  8 1017.6R
MILWAUKEE LAKESH 1520   77     140/ 10/ 10   N/A
S MID LAKE BUOY  1450   71 69  170/ 10/ 10 1018.4R   1
KENOSHA   LAKESH 1500   75     180/  9/ 12 1017.6
$$

TC  - TEMPERATURE IN CELSIUS
VSB - VISIBILITY IN STATUTE MILES
WCI - WIND CHILL INDEX
HX  - HEAT INDEX





USA.gov is the U.S. government's official web portal to all federal, state and local government web resources and services.